SCP
-0 -0 -0 -0 -0 -0 -0 -0 -0 0 0 0 0 0 0 -0 -0 -0 -0 -0 -0 -0 -0 0 0 0 0 0 0 -0 -0 -0 0 0 -0 -0 -0 0 0 0 0 -0 -0 -0 0 0 0
-0 -0 -0 -0 -0 -0 -0 -0 -0 0 0 0 0 0 0 -0 -0 -0 -0 -0 -0 -0 -0 0 0 0 -0 0 0 0 -0 0 0 -0 -0 -0 -0 -0 -0 -0 0 0 -0 0 0 0 0
-0 -0 -0 -0 -0 -0 -0 -0 -0 -0 -0 -0 0 0 0 -0 -0 -0 -0 0 -0 -0 0 0 0 0 -0 -0 0 0 0 0 0 -0 -0 -0 -0 -0 -0 0 0 0 0 0 0 0 0
-0 -0 -0 -0 -0 -0 -0 -0 -0 -0 -0 -0 0 0 -0 -0 -0 0 0 0 -0 -0 0 0 0 0 0 0 -0 -0 0 0 0 -0 -0 0 -0 0 -0 0 0 0 0 0 0 0 0
-0 -0 -0 -0 -0 -0 -0 -0 -0 -0 -0 0 0 0 0 -0 0 0 0 -0 -0 0 0 0 0 0 0 -0 0 -0 0 -0 -0 0 -0 -0 -0 -0 -0 0 0 0 0 0 0 0 0
-0 -0 -0 -0 -0 -0 -0 -0 -0 -0 -0 0 0 0 0 0 0 0 -0 0 0 0 0 0 0 0 0 -0 -0 -0 -0 -0 -0 -0 -0 -0 -0 0 -0 0 0 0 0 0 0 0 0
-0 -0 -0 -0 -0 -0 -0 -0 -0 -0 -0 -0 0 0 0 0 0 0 0 0 0 0 0 0 0 0 0 -0 -0 -0 -0 -0 -0 -0 -0 -0 -0 -0 -0 -0 -0 0 0 -0 0 0 0
-0 -0 -0 -0 -0 -0 -0 -0 -0 -0 -0 -0 -0 0 0 0 0 0 0 0 0 -0 0 -0 -0 -0 -0 0 0 -0 0 -0 0 -0 -0 0 -0 -0 -0 -0 0 0 0 -0 0 -0 0
-0 -0 -0 -0 -0 -0 -0 -0 -0 -0 -0 -0 0 0 0 0 0 0 0 0 -0 -0 0 0 -0 -0 -0 0 -0 -0 -0 -0 -0 0 -0 0 -0 -0 0 0 -0 0 0 -0 0 0 0
-0 -0 -0 -0 -0 -0 -0 -0 -0 -0 -0 -0 0 0 0 0 0 0 0 0 -0 -0 0 0 0 0 0 0 -0 -0 -0 0 0 0 0 -0 -0 -0 0 0 -0 0 -0 -0 -0 0 -0
-0 -0 -0 -0 -0 -0 -0 -0 -0 -0 -0 -0 0 0 0 -0 0 0 0 0 0 0 0 -0 0 0 -0 -0 -0 -0 -0 0 -0 -0 0 -0 -0 -0 0 0 0 -0 0 -0 0 -0 -0
-0 -0 -0 -0 -0 -0 -0 -0 -0 -0 -0 -0 0 0 0 0 0 0 0 0 0 0 0 0 -0 0 0 -0 -0 0 0 0 0 -0 -0 0 -0 0 0 0 0 -0 0 -0 -0 0 0
-0 -0 -0 -0 -0 -0 -0 -0 -0 -0 -0 -0 -0 0 0 0 0 0 0 0 0 0 -0 0 0 -0 0 0 0 -0 -0 0 0 -0 0 -0 -0 0 0 -0 -0 -0 0 0 0 0 0
-0 -0 -0 -0 -0 -0 -0 -0 -0 -0 -0 -0 0 -0 0 -0 0 0 0 0 -0 0 0 0 0 -0 -0 -0 -0 0 -0 -0 -0 -0 -0 -0 -0 -0 0 0 0 0 0 -0 0 0 0
-0 -0 -0 -0 -0 -0 -0 -0 -0 -0 -0 -0 0 0 -0 -0 0 0 0 -0 0 0 0 0 0 0 -0 -0 -0 0 0 -0 -0 -0 0 -0 -0 -0 0 0 0 0 0 -0 0 0 0
-0 -0 -0 -0 -0 -0 -0 -0 -0 -0 -0 -0 -0 0 0 0 0 0 0 0 0 0 0 0 0 -0 -0 -0 -0 0 0 0 -0 0 0 0 0 -0 0 0 0 0 -0 0 0 0 -0
-0 -0 -0 -0 -0 -0 -0 -0 -0 -0 -0 0 0 0 -0 -0 0 0 0 0 0 0 0 0 0 0 -0 0 0 0 -0 0 0 0 0 0 0 -0 0 -0 -0 0 0 0 0 0 0
-0 -0 -0 -0 -0 -0 -0 -0 -0 -0 -0 0 0 0 0 0 -0 0 0 0 -0 0 0 0 0 0 0 0 0 0 0 0 0 0 0 0 0 0 0 0 0 0 0 0 0 0 0
-0 -0 -0 -0 -0 -0 -0 -0 -0 -0 0 0 0 0 0 0 0 0 0 0 0 0 0 0 0 0 0 0 0 0 0 0 0 0 0 0 0 0 0 0 -0 0 0 0 0 0 0
-0 -0 -0 -0 -0 -0 -0 -0 -0 -0 0 0 0 0 0 0 0 0 0 0 0 0 0 0 0 0 0 0 0 0 0 0 0 0 0 0 0 0 0 0 0 -0 0 0 0 0 0
-0 -0 -0 -0 -0 -0 -0 -0 -0 -0 -0 0 0 0 0 0 0 0 0 0 0 0 0 0 0 0 0 0 0 0 0 0 0 0 0 0 0 0 0 0 0 0 0 0 0 0 0
-0 -0 -0 -0 -0 -0 -0 -0 -0 -0 -0 0 0 0 0 0 0 0 0 0 0 0 0 0 0 0 0 0 0 0 0 0 0 0 0 0 0 0 0 0 0 0 0 0 0 0 0
-0 -0 -0 -0 -0 -0 -0 -0 -0 -0 -0 0 0 0 0 0 0 0 0 0 0 0 0 0 0 0 0 0 0 0 0 0 0 0 0 0 0 0 0 0 0 0 0 0 0 0 0
0 -0 -0 -0 -0 -0 -0 -0 -0 -0 -0 0 0 0 0 0 0 0 0 0 0 0 0 0 0 0 0 0 0 0 0 0 0 0 0 0 0 0 0 0 0 0 0 0 0 0 0
0 0 -0 -0 -0 -0 -0 -0 -0 -0 -0 0 0 0 0 0 0 -0 0 0 0 0 0 0 0 0 0 0 0 0 0 0 0 0 0 0 0 0 0 0 0 0 0 0 0 0 0
0 0 -0 -0 -0 -0 -0 -0 -0 -0 -0 0 0 0 0 0 0 0 0 0 0 0 0 0 0 0 0 0 0 0 0 0 0 0 0 0 0 0 0 0 0 0 0 0 0 0 0
0 0 0 -0 -0 -0 -0 -0 -0 -0 -0 0 0 0 0 0 0 0 0 0 0 0 0 0 0 0 0 0 0 0 0 0 0 0 0 0 0 0 0 0 0 0 0 0 0 0 0
0 0 0 0 -0 -0 -0 -0 -0 -0 -0 0 0 0 0 0 0 0 0 0 0 0 0 0 0 0 0 0 0 0 0 0 0 0 0 0 0 0 0 0 0 0 0 0 0 0 0
0 0 0 0 0 -0 -0 -0 -0 -0 -0 -0 0 0 0 0 0 0 0 0 0 0 0 0 0 0 0 0 0 0 0 0 0 0 0 0 0 0 0 0 0 0 0 0 0 0 0
Wind_Speed_500mb
30 29 28 28 26 26 25 23 22 21 19 18 16 16 15 15 13 12 12 11 11 10 11 12 13 14 14 11 27 3 8 7 11 16 26 32 50 28 17 17 15 16 5 20 22 13 14
32 32 31 31 30 29 29 27 25 23 22 20 18 17 16 15 13 12 11 10 10 9 10 11 13 13 12 13 1 4 9 8 4 18 22 26 33 38 26 36 9 4 19 12 21 13 10
35 35 34 34 34 33 33 32 29 26 24 21 19 17 16 14 12 11 10 9 8 8 8 10 11 13 20 34 5 6 5 9 6 21 29 31 13 24 42 17 18 12 16 17 14 14 8
37 37 37 38 38 39 38 37 34 30 26 22 20 17 15 13 12 10 9 7 6 6 7 9 10 11 20 15 23 22 14 12 20 22 28 20 15 20 32 39 37 15 14 6 13 17 20
38 39 39 41 43 43 44 44 40 34 27 22 18 16 14 12 11 9 7 5 5 6 7 9 7 8 21 18 24 22 21 23 16 13 15 14 8 30 46 14 14 15 6 10 15 19 9
40 40 40 42 45 47 49 49 46 38 27 20 17 14 12 11 10 8 8 7 7 9 8 10 12 12 30 31 28 22 20 22 21 19 25 21 21 12 13 7 10 12 1 8 10 7 11
41 41 41 42 45 48 52 53 51 42 28 21 16 12 11 11 11 11 12 9 3 5 22 25 24 22 4 9 25 21 24 18 18 15 13 33 6 16 27 17 12 10 12 13 15 17 6
42 42 43 44 45 49 52 56 55 46 32 24 18 13 11 12 14 16 20 14 9 26 20 38 27 35 40 13 14 17 22 20 25 15 23 13 18 31 29 15 18 14 4 16 15 19 7
42 43 44 45 45 48 52 56 56 48 36 25 15 8 11 12 12 16 22 27 10 19 9 23 55 36 35 17 26 34 37 34 21 17 22 16 24 25 8 6 14 16 12 15 17 10 15
41 43 45 46 47 48 51 54 56 49 37 24 15 5 9 12 11 9 16 1 3 8 7 5 19 17 32 26 16 34 43 34 17 21 20 14 23 18 10 12 10 10 22 22 16 12 9
42 42 44 46 48 49 50 52 55 50 37 25 16 3 12 20 9 14 11 10 8 14 8 29 22 17 27 31 12 12 38 36 19 21 7 19 19 12 11 17 15 13 15 14 13 10 9
42 43 44 46 48 49 50 50 51 49 36 24 15 3 14 20 13 11 8 5 7 2 11 18 17 16 14 32 29 27 16 22 26 20 20 21 45 12 9 12 13 15 9 17 14 1 6
43 44 44 45 47 49 50 49 48 46 35 22 14 3 16 22 15 9 9 11 3 8 16 21 14 22 17 17 21 18 18 12 10 7 15 25 36 23 18 8 14 14 6 8 10 3 10
44 44 45 45 46 47 49 49 46 44 33 19 14 4 17 28 10 9 8 3 9 19 19 17 20 23 18 20 22 18 15 13 20 18 16 14 25 37 16 14 14 8 11 9 13 8 9
46 45 45 46 46 47 48 49 45 41 34 16 12 9 14 31 12 7 11 7 8 13 20 9 20 19 17 24 19 19 21 21 22 23 10 8 14 13 18 12 7 10 10 13 9 12 6
47 47 46 46 46 46 47 48 46 39 36 19 13 15 24 19 20 8 6 12 14 22 18 24 12 14 17 20 16 16 13 17 15 17 18 9 10 15 21 3 12 13 12 12 9 6 12
46 47 46 46 45 45 45 47 47 38 32 17 11 9 12 32 19 18 7 12 25 19 19 12 21 20 27 8 13 14 12 9 22 13 18 10 6 18 18 11 7 12 9 8 6 8 5
45 46 47 46 45 44 43 44 46 40 27 15 5 6 26 30 18 12 13 14 6 21 9 10 12 13 14 20 17 9 18 13 24 25 9 10 1 6 18 24 19 14 8 11 8 13 9
44 45 46 47 45 43 42 41 41 42 33 23 7 17 21 30 8 14 22 31 13 13 7 8 6 18 17 14 11 16 14 13 19 12 7 9 8 9 19 22 9 16 26 20 20 6 2
42 43 46 46 45 43 42 41 36 35 29 24 6 6 18 29 31 22 25 28 8 13 7 21 15 20 16 15 16 11 10 12 18 18 17 8 3 7 10 14 19 18 26 25 11 6 10
40 41 44 46 45 42 43 43 37 25 22 15 5 8 17 4 14 19 22 13 19 8 12 15 11 14 11 10 15 17 23 19 14 24 8 10 4 9 15 18 21 27 27 29 22 17 9
37 38 42 45 46 41 41 44 41 25 17 17 15 15 25 27 37 11 7 11 15 14 12 14 16 24 23 16 13 15 17 15 8 10 12 8 6 7 10 16 20 23 24 24 20 18 17
35 36 38 42 46 40 37 40 44 36 18 14 31 8 10 20 20 12 14 14 24 17 18 27 22 14 22 20 29 31 33 36 22 12 11 9 7 7 9 15 21 15 18 24 27 21 5
33 34 35 39 41 40 33 34 37 35 30 22 27 12 11 9 12 7 14 17 21 20 11 21 17 6 16 23 28 27 30 36 38 31 32 12 6 4 8 8 13 16 18 17 17 37 28
31 33 34 37 41 40 28 29 32 31 18 19 35 12 12 8 26 29 29 25 29 14 3 10 15 14 18 20 7 10 10 13 21 36 18 19 8 2 4 7 14 15 14 15 9 16 28
30 31 32 35 39 39 23 24 29 31 24 10 25 29 3 15 15 22 17 17 8 10 10 15 12 15 9 3 4 6 6 13 8 13 10 9 11 8 5 10 12 7 27 48 12 6 34
29 29 30 31 35 34 25 23 26 28 24 15 28 41 5 10 22 21 14 10 16 19 6 15 17 5 11 3 6 6 10 13 7 4 8 6 6 5 7 10 5 11 25 36 5 7 40
30 27 27 28 30 30 24 21 23 26 22 18 21 34 23 9 16 16 16 17 21 25 8 29 15 13 11 6 4 6 6 7 9 12 11 6 4 7 6 7 5 14 15 9 10 15 28
28 26 24 24 25 25 22 19 20 24 23 17 12 16 17 10 9 11 8 8 2 8 16 20 16 12 13 7 9 8 7 7 12 7 14 7 3 4 2 2 21 38 26 24 25 27 33
Wind_Direction_500mb
25 22 18 13 11 4 355 347 339 330 319 309 304 298 295 293 289 285 281 278 274 265 255 249 252 270 302 292 267 267 347 285 268 224 262 280 293 342 350 353 74 57 321 139 156 174 139
24 21 17 13 10 6 357 350 341 329 317 310 303 297 295 290 286 280 276 273 268 260 249 242 245 265 286 268 175 13 7 331 200 214 241 286 306 336 326 338 48 342 273 259 149 114 160
24 21 16 13 10 7 0 352 343 331 321 311 303 297 292 287 282 275 270 266 260 250 238 234 239 258 263 239 80 1 326 235 207 225 257 294 347 332 321 314 16 280 279 255 148 157 136
26 23 18 14 11 8 2 355 347 337 324 313 304 294 286 280 272 267 261 254 246 229 219 215 224 263 262 248 283 255 243 263 237 259 267 316 338 310 294 297 299 241 288 40 211 180 187
24 23 18 15 11 9 4 360 353 343 329 318 306 291 281 269 259 252 243 227 210 196 192 191 179 256 264 251 219 209 232 239 203 248 270 284 333 277 284 280 297 257 103 355 296 178 142
20 17 15 12 9 7 5 2 357 348 337 324 310 291 270 252 241 227 214 194 184 163 165 192 200 281 248 223 216 210 218 241 241 218 243 236 234 248 277 262 258 31 80 204 255 202 117
14 11 9 7 5 4 3 2 359 353 345 333 317 294 262 237 221 208 197 172 172 195 202 203 204 215 354 194 242 199 196 215 265 254 233 238 200 248 258 257 287 51 2 312 307 300 155
10 7 5 3 2 1 1 0 360 356 347 332 315 284 247 223 213 210 205 213 253 350 259 242 242 253 271 328 183 200 198 200 229 244 249 269 238 239 257 290 325 330 274 290 289 286 50
5 4 3 1 0 359 359 359 360 358 352 342 328 285 226 211 210 224 231 218 356 11 288 253 226 230 235 235 263 212 190 209 245 230 248 227 254 275 229 326 309 318 290 261 243 307 348
1 0 0 0 360 358 358 359 359 360 0 358 346 300 199 180 178 208 249 208 306 354 300 174 176 241 219 218 255 238 190 198 228 248 261 251 265 274 332 332 303 260 283 314 328 24 300
357 357 357 358 359 358 357 358 359 1 1 359 353 310 186 169 178 190 344 341 329 276 309 148 179 213 186 198 184 238 179 196 251 269 302 250 275 248 236 241 257 266 315 320 316 303 350
353 353 353 354 356 357 356 356 358 360 359 357 351 304 189 189 176 67 101 349 181 267 249 172 137 175 178 212 263 146 162 207 237 258 287 277 289 269 222 306 333 320 360 299 285 7 331
353 351 351 352 352 354 353 354 355 357 355 352 349 287 196 189 157 208 278 266 271 238 162 146 169 167 205 199 245 176 176 196 207 253 260 266 258 249 217 224 270 263 260 310 328 36 212
353 351 350 349 350 350 350 351 353 352 352 338 343 276 209 195 151 125 185 243 255 273 249 189 159 152 184 205 219 222 163 222 218 228 264 271 313 192 191 190 216 294 202 181 286 270 237
352 352 351 350 349 348 348 347 350 350 346 321 318 316 236 186 184 178 286 222 251 313 3 338 150 152 201 218 216 201 187 214 219 203 204 2 327 351 135 197 107 289 338 263 318 295 3
352 352 352 351 350 349 347 345 346 350 341 331 282 295 263 178 176 188 249 245 274 271 13 346 343 174 204 214 187 191 199 224 244 108 95 344 343 342 326 162 216 187 230 359 346 345 318
354 354 354 353 352 351 350 346 345 349 345 345 329 285 151 166 168 227 234 256 289 310 19 321 341 329 332 274 190 217 243 21 21 104 89 43 49 306 342 302 333 338 313 255 258 124 164
356 357 356 355 354 354 353 350 345 345 353 338 321 273 164 163 189 219 238 248 323 339 3 275 321 307 332 3 1 50 64 64 35 45 40 25 290 298 273 290 305 308 345 354 133 277 201
356 358 358 357 356 356 356 353 349 342 345 353 299 272 182 183 226 242 252 253 251 303 21 297 269 10 9 17 0 22 89 99 63 65 75 15 328 349 338 340 343 19 332 334 329 48 349
355 357 359 359 357 358 359 357 351 341 331 337 315 276 187 204 239 281 289 295 178 172 311 343 354 352 6 347 331 317 321 155 118 118 120 126 274 218 220 259 303 326 323 325 338 354 311
354 357 359 0 358 358 1 0 357 345 325 338 240 314 11 294 242 235 272 328 342 137 177 98 355 314 304 323 351 359 14 1 61 138 103 130 228 290 297 307 313 314 310 308 312 295 304
351 355 358 360 359 360 3 5 7 3 12 52 21 359 340 302 320 318 23 352 304 359 15 86 36 6 37 50 35 357 10 16 30 340 335 319 267 250 277 286 303 317 320 318 307 301 287
348 351 355 358 1 0 4 11 13 20 20 67 5 320 321 291 312 317 3 30 37 27 40 58 51 13 45 14 349 331 316 307 299 308 303 310 320 348 287 323 315 316 301 301 296 301 76
343 348 351 354 358 359 2 12 20 24 31 31 8 351 290 293 325 61 17 16 45 45 11 6 14 29 32 353 336 318 297 282 277 266 249 248 250 200 258 306 271 257 273 303 33 23 25
339 344 347 350 355 356 358 9 16 24 25 42 14 24 342 310 346 27 22 22 357 348 298 318 77 55 353 349 332 308 309 287 253 237 236 205 190 260 201 238 285 296 350 3 68 49 23
334 338 343 349 353 358 6 9 14 15 26 59 20 10 7 302 32 358 328 349 314 334 315 167 79 20 21 285 280 241 259 265 283 355 197 104 119 125 313 274 267 19 359 351 345 67 353
327 331 339 345 352 358 3 7 12 17 23 46 36 2 341 295 38 14 36 337 354 343 340 42 355 348 328 248 290 286 289 290 302 345 16 15 351 250 274 269 273 341 14 351 282 290 344
317 323 332 340 348 354 360 5 13 16 29 56 52 359 13 336 37 32 22 21 6 20 11 345 333 357 338 356 319 340 350 2 2 350 334 292 282 282 273 293 303 41 53 76 231 308 328
302 312 323 332 339 347 354 1 10 15 22 20 353 14 19 296 270 357 317 271 189 13 347 338 324 343 45 15 15 347 341 332 355 306 339 334 117 215 135 257 55 35 48 23 4 353 334
Wind_Speed_850mb
30 29 28 28 26 26 25 23 22 21 19 18 16 16 15 15 13 12 12 11 11 10 11 12 13 14 14 11 27 3 8 7 11 16 26 32 50 28 17 17 15 16 5 20 22 13 14
32 32 31 31 30 29 29 27 25 23 22 20 18 17 16 15 13 12 11 10 10 9 10 11 13 13 12 13 1 4 9 8 4 18 22 26 33 38 26 36 9 4 19 12 21 13 10
35 35 34 34 34 33 33 32 29 26 24 21 19 17 16 14 12 11 10 9 8 8 8 10 11 13 20 34 5 6 5 9 6 21 29 31 13 24 42 17 18 12 16 17 14 14 8
37 37 37 38 38 39 38 37 34 30 26 22 20 17 15 13 12 10 9 7 6 6 7 9 10 11 20 15 23 22 14 12 20 22 28 20 15 20 32 39 37 15 14 6 13 17 20
38 39 39 41 43 43 44 44 40 34 27 22 18 16 14 12 11 9 7 5 5 6 7 9 7 8 21 18 24 22 21 23 16 13 15 14 8 30 46 14 14 15 6 10 15 19 9
40 40 40 42 45 47 49 49 46 38 27 20 17 14 12 11 10 8 8 7 7 9 8 10 12 12 30 31 28 22 20 22 21 19 25 21 21 12 13 7 10 12 1 8 10 7 11
41 41 41 42 45 48 52 53 51 42 28 21 16 12 11 11 11 11 12 9 3 5 22 25 24 22 4 9 25 21 24 18 18 15 13 33 6 16 27 17 12 10 12 13 15 17 6
42 42 43 44 45 49 52 56 55 46 32 24 18 13 11 12 14 16 20 14 9 26 20 38 27 35 40 13 14 17 22 20 25 15 23 13 18 31 29 15 18 14 4 16 15 19 7
42 43 44 45 45 48 52 56 56 48 36 25 15 8 11 12 12 16 22 27 10 19 9 23 55 36 35 17 26 34 37 34 21 17 22 16 24 25 8 6 14 16 12 15 17 10 15
41 43 45 46 47 48 51 54 56 49 37 24 15 5 9 12 11 9 16 1 3 8 7 5 19 17 32 26 16 34 43 34 17 21 20 14 23 18 10 12 10 10 22 22 16 12 9
42 42 44 46 48 49 50 52 55 50 37 25 16 3 12 20 9 14 11 10 8 14 8 29 22 17 27 31 12 12 38 36 19 21 7 19 19 12 11 17 15 13 15 14 13 10 9
42 43 44 46 48 49 50 50 51 49 36 24 15 3 14 20 13 11 8 5 7 2 11 18 17 16 14 32 29 27 16 22 26 20 20 21 45 12 9 12 13 15 9 17 14 1 6
43 44 44 45 47 49 50 49 48 46 35 22 14 3 16 22 15 9 9 11 3 8 16 21 14 22 17 17 21 18 18 12 10 7 15 25 36 23 18 8 14 14 6 8 10 3 10
44 44 45 45 46 47 49 49 46 44 33 19 14 4 17 28 10 9 8 3 9 19 19 17 20 23 18 20 22 18 15 13 20 18 16 14 25 37 16 14 14 8 11 9 13 8 9
46 45 45 46 46 47 48 49 45 41 34 16 12 9 14 31 12 7 11 7 8 13 20 9 20 19 17 24 19 19 21 21 22 23 10 8 14 13 18 12 7 10 10 13 9 12 6
47 47 46 46 46 46 47 48 46 39 36 19 13 15 24 19 20 8 6 12 14 22 18 24 12 14 17 20 16 16 13 17 15 17 18 9 10 15 21 3 12 13 12 12 9 6 12
46 47 46 46 45 45 45 47 47 38 32 17 11 9 12 32 19 18 7 12 25 19 19 12 21 20 27 8 13 14 12 9 22 13 18 10 6 18 18 11 7 12 9 8 6 8 5
45 46 47 46 45 44 43 44 46 40 27 15 5 6 26 30 18 12 13 14 6 21 9 10 12 13 14 20 17 9 18 13 24 25 9 10 1 6 18 24 19 14 8 11 8 13 9
44 45 46 47 45 43 42 41 41 42 33 23 7 17 21 30 8 14 22 31 13 13 7 8 6 18 17 14 11 16 14 13 19 12 7 9 8 9 19 22 9 16 26 20 20 6 2
42 43 46 46 45 43 42 41 36 35 29 24 6 6 18 29 31 22 25 28 8 13 7 21 15 20 16 15 16 11 10 12 18 18 17 8 3 7 10 14 19 18 26 25 11 6 10
40 41 44 46 45 42 43 43 37 25 22 15 5 8 17 4 14 19 22 13 19 8 12 15 11 14 11 10 15 17 23 19 14 24 8 10 4 9 15 18 21 27 27 29 22 17 9
37 38 42 45 46 41 41 44 41 25 17 17 15 15 25 27 37 11 7 11 15 14 12 14 16 24 23 16 13 15 17 15 8 10 12 8 6 7 10 16 20 23 24 24 20 18 17
35 36 38 42 46 40 37 40 44 36 18 14 31 8 10 20 20 12 14 14 24 17 18 27 22 14 22 20 29 31 33 36 22 12 11 9 7 7 9 15 21 15 18 24 27 21 5
33 34 35 39 41 40 33 34 37 35 30 22 27 12 11 9 12 7 14 17 21 20 11 21 17 6 16 23 28 27 30 36 38 31 32 12 6 4 8 8 13 16 18 17 17 37 28
31 33 34 37 41 40 28 29 32 31 18 19 35 12 12 8 26 29 29 25 29 14 3 10 15 14 18 20 7 10 10 13 21 36 18 19 8 2 4 7 14 15 14 15 9 16 28
30 31 32 35 39 39 23 24 29 31 24 10 25 29 3 15 15 22 17 17 8 10 10 15 12 15 9 3 4 6 6 13 8 13 10 9 11 8 5 10 12 7 27 48 12 6 34
29 29 30 31 35 34 25 23 26 28 24 15 28 41 5 10 22 21 14 10 16 19 6 15 17 5 11 3 6 6 10 13 7 4 8 6 6 5 7 10 5 11 25 36 5 7 40
30 27 27 28 30 30 24 21 23 26 22 18 21 34 23 9 16 16 16 17 21 25 8 29 15 13 11 6 4 6 6 7 9 12 11 6 4 7 6 7 5 14 15 9 10 15 28
28 26 24 24 25 25 22 19 20 24 23 17 12 16 17 10 9 11 8 8 2 8 16 20 16 12 13 7 9 8 7 7 12 7 14 7 3 4 2 2 21 38 26 24 25 27 33
Wind_Direction_850mb
25 22 18 13 11 4 355 347 339 330 319 309 304 298 295 293 289 285 281 278 274 265 255 249 252 270 302 292 267 267 347 285 268 224 262 280 293 342 350 353 74 57 321 139 156 174 139
24 21 17 13 10 6 357 350 341 329 317 310 303 297 295 290 286 280 276 273 268 260 249 242 245 265 286 268 175 13 7 331 200 214 241 286 306 336 326 338 48 342 273 259 149 114 160
24 21 16 13 10 7 0 352 343 331 321 311 303 297 292 287 282 275 270 266 260 250 238 234 239 258 263 239 80 1 326 235 207 225 257 294 347 332 321 314 16 280 279 255 148 157 136
26 23 18 14 11 8 2 355 347 337 324 313 304 294 286 280 272 267 261 254 246 229 219 215 224 263 262 248 283 255 243 263 237 259 267 316 338 310 294 297 299 241 288 40 211 180 187
24 23 18 15 11 9 4 360 353 343 329 318 306 291 281 269 259 252 243 227 210 196 192 191 179 256 264 251 219 209 232 239 203 248 270 284 333 277 284 280 297 257 103 355 296 178 142
20 17 15 12 9 7 5 2 357 348 337 324 310 291 270 252 241 227 214 194 184 163 165 192 200 281 248 223 216 210 218 241 241 218 243 236 234 248 277 262 258 31 80 204 255 202 117
14 11 9 7 5 4 3 2 359 353 345 333 317 294 262 237 221 208 197 172 172 195 202 203 204 215 354 194 242 199 196 215 265 254 233 238 200 248 258 257 287 51 2 312 307 300 155
10 7 5 3 2 1 1 0 360 356 347 332 315 284 247 223 213 210 205 213 253 350 259 242 242 253 271 328 183 200 198 200 229 244 249 269 238 239 257 290 325 330 274 290 289 286 50
5 4 3 1 0 359 359 359 360 358 352 342 328 285 226 211 210 224 231 218 356 11 288 253 226 230 235 235 263 212 190 209 245 230 248 227 254 275 229 326 309 318 290 261 243 307 348
1 0 0 0 360 358 358 359 359 360 0 358 346 300 199 180 178 208 249 208 306 354 300 174 176 241 219 218 255 238 190 198 228 248 261 251 265 274 332 332 303 260 283 314 328 24 300
357 357 357 358 359 358 357 358 359 1 1 359 353 310 186 169 178 190 344 341 329 276 309 148 179 213 186 198 184 238 179 196 251 269 302 250 275 248 236 241 257 266 315 320 316 303 350
353 353 353 354 356 357 356 356 358 360 359 357 351 304 189 189 176 67 101 349 181 267 249 172 137 175 178 212 263 146 162 207 237 258 287 277 289 269 222 306 333 320 360 299 285 7 331
353 351 351 352 352 354 353 354 355 357 355 352 349 287 196 189 157 208 278 266 271 238 162 146 169 167 205 199 245 176 176 196 207 253 260 266 258 249 217 224 270 263 260 310 328 36 212
353 351 350 349 350 350 350 351 353 352 352 338 343 276 209 195 151 125 185 243 255 273 249 189 159 152 184 205 219 222 163 222 218 228 264 271 313 192 191 190 216 294 202 181 286 270 237
352 352 351 350 349 348 348 347 350 350 346 321 318 316 236 186 184 178 286 222 251 313 3 338 150 152 201 218 216 201 187 214 219 203 204 2 327 351 135 197 107 289 338 263 318 295 3
352 352 352 351 350 349 347 345 346 350 341 331 282 295 263 178 176 188 249 245 274 271 13 346 343 174 204 214 187 191 199 224 244 108 95 344 343 342 326 162 216 187 230 359 346 345 318
354 354 354 353 352 351 350 346 345 349 345 345 329 285 151 166 168 227 234 256 289 310 19 321 341 329 332 274 190 217 243 21 21 104 89 43 49 306 342 302 333 338 313 255 258 124 164
356 357 356 355 354 354 353 350 345 345 353 338 321 273 164 163 189 219 238 248 323 339 3 275 321 307 332 3 1 50 64 64 35 45 40 25 290 298 273 290 305 308 345 354 133 277 201
356 358 358 357 356 356 356 353 349 342 345 353 299 272 182 183 226 242 252 253 251 303 21 297 269 10 9 17 0 22 89 99 63 65 75 15 328 349 338 340 343 19 332 334 329 48 349
355 357 359 359 357 358 359 357 351 341 331 337 315 276 187 204 239 281 289 295 178 172 311 343 354 352 6 347 331 317 321 155 118 118 120 126 274 218 220 259 303 326 323 325 338 354 311
354 357 359 0 358 358 1 0 357 345 325 338 240 314 11 294 242 235 272 328 342 137 177 98 355 314 304 323 351 359 14 1 61 138 103 130 228 290 297 307 313 314 310 308 312 295 304
351 355 358 360 359 360 3 5 7 3 12 52 21 359 340 302 320 318 23 352 304 359 15 86 36 6 37 50 35 357 10 16 30 340 335 319 267 250 277 286 303 317 320 318 307 301 287
348 351 355 358 1 0 4 11 13 20 20 67 5 320 321 291 312 317 3 30 37 27 40 58 51 13 45 14 349 331 316 307 299 308 303 310 320 348 287 323 315 316 301 301 296 301 76
343 348 351 354 358 359 2 12 20 24 31 31 8 351 290 293 325 61 17 16 45 45 11 6 14 29 32 353 336 318 297 282 277 266 249 248 250 200 258 306 271 257 273 303 33 23 25
339 344 347 350 355 356 358 9 16 24 25 42 14 24 342 310 346 27 22 22 357 348 298 318 77 55 353 349 332 308 309 287 253 237 236 205 190 260 201 238 285 296 350 3 68 49 23
334 338 343 349 353 358 6 9 14 15 26 59 20 10 7 302 32 358 328 349 314 334 315 167 79 20 21 285 280 241 259 265 283 355 197 104 119 125 313 274 267 19 359 351 345 67 353
327 331 339 345 352 358 3 7 12 17 23 46 36 2 341 295 38 14 36 337 354 343 340 42 355 348 328 248 290 286 289 290 302 345 16 15 351 250 274 269 273 341 14 351 282 290 344
317 323 332 340 348 354 360 5 13 16 29 56 52 359 13 336 37 32 22 21 6 20 11 345 333 357 338 356 319 340 350 2 2 350 334 292 282 282 273 293 303 41 53 76 231 308 328
302 312 323 332 339 347 354 1 10 15 22 20 353 14 19 296 270 357 317 271 189 13 347 338 324 343 45 15 15 347 341 332 355 306 339 334 117 215 135 257 55 35 48 23 4 353 334